Weather History for KMRT - December, 2013

Change the Weather History Date:

Tuesday, December 31, 2013

  Actual Average (KDLZ) Record (KDLZ)
Temperature  
Mean Temperature 22 °F -  
Max Temperature 26 °F 36 °F 65 °F (1951)
Min Temperature 19 °F 20 °F -6 °F (1963)
Degree Days  
Heating Degree Days 42    
Moisture  
Dew Point 15 °F    
Average Humidity 74    
Maximum Humidity 87    
Minimum Humidity 62    
Precipitation  
Precipitation 0.00 in - - ()
Sea Level Pressure  
Sea Level Pressure 30.22 in    
Wind  
Wind Speed 9 mph (West)    
Max Wind Speed 20 mph    
Max Gust Speed 24 mph    
Visibility 9 miles    
Events      
Averages and records for this station are not official NWS values.
T = Trace of Precipitation, MM = Missing Value Source: NWS Daily Summary

Daily Weather History Graph

Daily Weather History Graph

Search for Another Location

Airport or City:

Trip Planner

Search our weather history database for the weather conditions in past years. The results will help you decide how hot, cold, wet, or windy it might be!

Date:

Astronomy

Dec. 31, 2013 Rise Set
Actual Time 7:55 AM EST 5:17 PM EST
Civil Twilight 7:25 AM EST 5:48 PM EST
Nautical Twilight 6:51 AM EST 6:22 PM EST
Astronomical Twilight 6:18 AM EST 6:55 PM EST
Moon 6:47 AM EST (12/31) 4:52 PM EST (12/31)
Length of Visible Light 10h 22m
Length of Day
9h 21m
Waning Crescent, 1% of the Moon is Illuminated
Dec 31
Waning Crescent
Jan 1
New
Jan 7
First Quarter
Jan 15
Full
Jan 24
Last Quarter

Hourly Weather History & Observations

Time (EST) Temp. Windchill Dew Point Humidity Pressure Visibility Wind Dir Wind Speed Gust Speed Precip Events Conditions
12:14 AM 21.9 °F 14.5 °F 15.3 °F 76% 30.13 in 10.0 mi WSW 5.8 mph - N/A   Mostly Cloudy
12:34 AM 21.7 °F 13.2 °F 15.4 °F 77% 30.13 in 10.0 mi WSW 6.9 mph - N/A   Mostly Cloudy
12:54 AM 21.9 °F 13.4 °F 15.6 °F 77% 30.11 in 10.0 mi WSW 6.9 mph - N/A   Overcast
1:14 AM 22.1 °F 13.7 °F 16.0 °F 77% 30.12 in 10.0 mi WSW 6.9 mph - N/A   Overcast
1:34 AM 22.1 °F 13.7 °F 16.2 °F 78% 30.12 in 10.0 mi WSW 6.9 mph - N/A   Overcast
1:54 AM 22.6 °F 12.6 °F 15.8 °F 75% 30.12 in 10.0 mi WSW 9.2 mph 16.1 mph N/A   Overcast
2:14 AM 22.8 °F 10.9 °F 15.4 °F 73% 30.12 in 10.0 mi WSW 12.7 mph 17.3 mph N/A   Overcast
2:34 AM 22.3 °F 13.0 °F 15.8 °F 76% 30.13 in 7.0 mi WSW 8.1 mph 17.3 mph N/A   Overcast
2:54 AM 22.1 °F 10.6 °F 16.0 °F 77% 30.13 in 10.0 mi West 11.5 mph - N/A   Overcast
3:14 AM 22.3 °F 13.0 °F 16.0 °F 77% 30.12 in 10.0 mi WSW 8.1 mph - N/A   Overcast
3:35 AM 22.5 °F 11.7 °F 15.1 °F 73% 30.11 in 10.0 mi WSW 10.4 mph 17.3 mph N/A   Mostly Cloudy
3:54 AM 22.6 °F 12.6 °F 14.9 °F 72% 30.11 in 10.0 mi WSW 9.2 mph - N/A   Mostly Cloudy
4:14 AM 22.6 °F 13.4 °F 15.1 °F 73% 30.10 in 10.0 mi WSW 8.1 mph 16.1 mph N/A   Mostly Cloudy
4:35 AM 22.8 °F 11.5 °F 15.1 °F 72% 30.10 in 10.0 mi West 11.5 mph - N/A   Mostly Cloudy
4:54 AM 22.8 °F 10.9 °F 15.1 °F 72% 30.10 in 10.0 mi West 12.7 mph - N/A   Overcast
5:14 AM 22.6 °F 11.3 °F 14.5 °F 71% 30.09 in 10.0 mi West 11.5 mph 19.6 mph N/A   Overcast
5:35 AM 22.5 °F 10.5 °F 14.4 °F 71% 30.10 in 10.0 mi West 12.7 mph - N/A   Overcast
5:54 AM 22.1 °F 9.5 °F 14.4 °F 72% 30.11 in 10.0 mi West 13.8 mph 19.6 mph N/A   Overcast
6:14 AM 22.1 °F 8.9 °F 13.6 °F 70% 30.12 in 10.0 mi West 15.0 mph 18.4 mph N/A   Overcast
6:35 AM 21.9 °F 8.2 °F 13.3 °F 69% 30.12 in 10.0 mi West 16.1 mph - N/A   Overcast
6:54 AM 21.7 °F 9.6 °F 13.5 °F 70% 30.13 in 10.0 mi WNW 12.7 mph - N/A   Overcast
7:14 AM 21.2 °F 8.3 °F 13.1 °F 71% 30.14 in 10.0 mi WNW 13.8 mph 20.7 mph N/A   Overcast
7:34 AM 20.8 °F 7.9 °F 13.1 °F 72% 30.14 in 10.0 mi WNW 13.8 mph 17.3 mph N/A   Overcast
7:54 AM 20.8 °F 5.9 °F 13.1 °F 72% 30.15 in 10.0 mi WNW 18.4 mph 24.2 mph N/A   Overcast
8:14 AM 19.9 °F 6.7 °F 13.1 °F 75% 30.18 in 3.0 mi WNW 13.8 mph 20.7 mph N/A   Overcast
8:34 AM 20.1 °F 9.5 °F 14.0 °F 77% 30.19 in 5.0 mi NW 9.2 mph - N/A   Overcast
8:54 AM 19.8 °F 6.5 °F 13.3 °F 76% 30.21 in 4.0 mi WNW 13.8 mph - N/A   Overcast
9:14 AM 19.9 °F 6.7 °F 13.3 °F 75% 30.22 in 5.0 mi West 13.8 mph - N/A   Overcast
9:34 AM 20.1 °F 7.5 °F 13.1 °F 74% 30.23 in 4.0 mi WNW 12.7 mph - N/A   Overcast
9:54 AM 20.3 °F 4.8 °F 12.7 °F 73% 30.25 in 7.0 mi West 19.6 mph 24.2 mph N/A   Overcast
10:14 AM 20.3 °F 7.7 °F 14.2 °F 77% 30.26 in 2.0 mi West 12.7 mph 20.7 mph N/A   Overcast
10:34 AM 19.9 °F 6.2 °F 14.4 °F 79% 30.28 in 1.2 mi WNW 15.0 mph 19.6 mph N/A   Overcast
10:54 AM 20.8 °F 7.3 °F 13.6 °F 74% 30.29 in 7.0 mi WNW 15.0 mph 19.6 mph N/A   Overcast
11:14 AM 20.8 °F 6.4 °F 12.7 °F 71% 30.30 in 7.0 mi WNW 17.3 mph 23.0 mph N/A   Overcast
11:34 AM 22.3 °F 8.7 °F 13.8 °F 70% 30.30 in 7.0 mi West 16.1 mph 21.9 mph N/A   Overcast
11:54 AM 21.4 °F 7.5 °F 14.0 °F 73% 30.30 in 5.0 mi WNW 16.1 mph - N/A   Overcast
12:14 PM 21.6 °F 7.3 °F 14.4 °F 74% 30.32 in 5.0 mi West 17.3 mph 20.7 mph N/A   Overcast
12:34 PM 22.8 °F 9.9 °F 14.2 °F 69% 30.30 in 10.0 mi West 15.0 mph 20.7 mph N/A   Overcast
12:54 PM 22.8 °F 8.9 °F 13.8 °F 68% 30.30 in 10.0 mi WNW 17.3 mph 21.9 mph N/A   Overcast
1:14 PM 23.7 °F 11.0 °F 13.8 °F 66% 30.30 in 10.0 mi West 15.0 mph 23.0 mph N/A   Overcast
1:34 PM 22.8 °F 9.4 °F 13.8 °F 68% 30.30 in 10.0 mi West 16.1 mph - N/A   Overcast
1:55 PM 24.1 °F 12.0 °F 14.4 °F 66% 30.30 in 10.0 mi West 13.8 mph 18.4 mph N/A   Overcast
2:14 PM 25.3 °F 12.2 °F 14.0 °F 62% 30.30 in 10.0 mi West 17.3 mph - N/A   Mostly Cloudy
2:34 PM 23.9 °F 11.2 °F 13.5 °F 64% 30.29 in 10.0 mi West 15.0 mph - N/A   Scattered Clouds
2:54 PM 24.1 °F 12.5 °F 13.6 °F 64% 30.29 in 10.0 mi West 12.7 mph - N/A   Mostly Cloudy
3:14 PM 24.1 °F 13.7 °F 14.4 °F 66% 30.28 in 10.0 mi West 10.4 mph - N/A   Overcast
3:34 PM 24.8 °F 15.3 °F 14.9 °F 66% 30.28 in 10.0 mi West 9.2 mph - N/A   Scattered Clouds
3:54 PM 25.7 °F 15.7 °F 15.6 °F 66% 30.27 in 10.0 mi WSW 10.4 mph - N/A   Scattered Clouds
4:15 PM 25.7 °F 15.1 °F 15.8 °F 66% 30.28 in 10.0 mi WSW 11.5 mph - N/A   Clear
4:34 PM 25.7 °F 18.0 °F 16.3 °F 68% 30.28 in 10.0 mi WSW 6.9 mph - N/A   Clear
4:54 PM 25.7 °F 17.1 °F 16.7 °F 69% 30.28 in 10.0 mi WSW 8.1 mph - N/A   Scattered Clouds
5:15 PM 26.1 °F 19.4 °F 16.7 °F 68% 30.27 in 10.0 mi WSW 5.8 mph - N/A   Clear
5:34 PM 25.3 °F 19.7 °F 16.7 °F 70% 30.27 in 10.0 mi WSW 4.6 mph - N/A   Clear
5:54 PM 24.8 °F 19.1 °F 16.5 °F 71% 30.27 in 10.0 mi WSW 4.6 mph - N/A   Clear
6:15 PM 23.0 °F 18.4 °F 16.0 °F 74% 30.28 in 10.0 mi WSW 3.5 mph - N/A   Clear
6:34 PM 21.2 °F 16.4 °F 15.6 °F 79% 30.28 in 10.0 mi WSW 3.5 mph - N/A   Clear
6:54 PM 21.2 °F 16.4 °F 16.2 °F 81% 30.28 in 10.0 mi SW 3.5 mph - N/A   Mostly Cloudy
6:59 PM 21.6 °F 16.8 °F 16.7 °F 82% 30.28 in 10.0 mi SSW 3.5 mph - N/A   Mostly Cloudy
7:34 PM 24.1 °F - 18.0 °F 77% 30.27 in 10.0 mi Calm Calm - N/A   Overcast
7:54 PM 23.0 °F - 17.1 °F 78% 30.28 in 10.0 mi Calm Calm - N/A   Mostly Cloudy
8:14 PM 22.1 °F 17.4 °F 16.5 °F 79% 30.28 in 10.0 mi SW 3.5 mph - N/A   Clear
8:34 PM 21.0 °F - 16.3 °F 82% 30.27 in 10.0 mi Calm Calm - N/A   Scattered Clouds
8:54 PM 21.7 °F - 17.1 °F 82% 30.26 in 10.0 mi Calm Calm - N/A   Scattered Clouds
9:15 PM 22.1 °F - 17.4 °F 82% 30.27 in 10.0 mi Calm Calm - N/A   Scattered Clouds
9:34 PM 22.8 °F - 17.1 °F 79% 30.26 in 10.0 mi Calm Calm - N/A   Scattered Clouds
9:54 PM 22.3 °F - 17.1 °F 80% 30.26 in 10.0 mi Calm Calm - N/A   Clear
10:15 PM 20.3 °F - 16.5 °F 85% 30.26 in 10.0 mi Calm Calm - N/A   Clear
10:34 PM 20.3 °F - 16.7 °F 86% 30.27 in 10.0 mi Calm Calm - N/A   Mostly Cloudy
10:54 PM 21.7 °F - 16.9 °F 82% 30.28 in 10.0 mi Calm Calm - N/A   Overcast
11:15 PM 19.2 °F - 15.3 °F 85% 30.27 in 10.0 mi Calm Calm - N/A   Scattered Clouds
11:34 PM 19.4 °F - 16.0 °F 87% 30.28 in 10.0 mi Calm Calm - N/A   Clear
11:54 PM 20.5 °F - 16.5 °F 85% 30.28 in 10.0 mi Calm Calm - N/A   Clear